Location: Poughquag
(41.6090°N, 73.6820°W)
Time: 02:30:28
(UTC-04:00)

Transit 2A - Pass Details

Date: 07 June 2020
Orbit: 592 x 967 km, 66.7° (Epoch: 06 July)

Event Time Altitude Azimuth Distance (km) Brightness Sun altitude
Rises 19:26:13 0° 338° (NNW) 3,536 10.2 9.3°
Reaches altitude 10° 19:29:25 10° 354° (N) 2,641 9.2 8.7°
Maximum altitude 19:33:56 20° 41° (NE) 2,031 8.1 7.9°
Drops below altitude 10° 19:38:33 10° 88° (E) 2,704 8.3 7.1°
Sets 19:41:51 0° 104° (ESE) 3,647 8.8 6.6°
